Location: Buisson
(44.2787°N, 4.9969°E)
Time: 13:11:33
(UTC+00:00)

N. Korean satellite - Pass Details

Date: 02 October 2021
Orbit: 450 x 495 km, 97.3° (Epoch: 19 October)

Event Time Altitude Azimuth Distance (km) Brightness Sun altitude
Rises 04:55:58 0° 13° (NNE) 2,552 10.4 -8.5°
Reaches altitude 10° 04:58:02 10° 14° (NNE) 1,674 9.5 -8.2°
Maximum altitude 05:01:38 79° 101° (ESE) 503 6.7 -7.5°
Drops below altitude 10° 05:05:15 10° 189° (S) 1,680 9.2 -6.9°
Sets 05:07:20 0° 191° (S) 2,561 10.1 -6.5°
